Вернуться в каталог

SL-14 R/B

АктивенLEO
NORAD 20197·ROCKET BODY·🇷🇺 Russia

Запущен Aug 28, 1989 с Plesetsk Cosmodrome

Loading…

Ближайшие Пролёты (ближайшие 24 часа)

TLE

СвежийSource: Space-Track

Эпоха: Sep 14, 2026, 04:00 UTC

1 20197U 89068B   26257.16731163  .00000000  00000-0  12817-3 0  9992
2 20197  73.5667 173.9020 0023532  62.0788  98.7930 12.40774276677087

Отслеживайте SL-14 R/B в реальном времени с AllMySat

Download on the App Store